{"data":{"norad_id":49177,"epoch":"2026-05-25T02:23:09.741120Z","epoch_age_seconds":69654,"freshness":"FRESH","line1":"1 49177U 21082AZ  26145.09941830  .00001441  00000+0  12852-3 0  9993","line2":"2 49177  70.0006  61.8091 0003122 269.6591  90.4210 14.98324061259600","mean_motion":14.98324061,"eccentricity":0.0003122,"inclination_deg":70.0006,"raan_deg":61.8091,"arg_perigee_deg":269.6591,"mean_anomaly_deg":90.421,"bstar":0.00012852,"rev_number":25960,"period_min":96.107380070966,"perigee_km":569.90440091828,"apogee_km":574.24411282707,"semimajor_km":6950.2112568727,"source":"CELESTRAK","updated_at":"2026-05-25T13:38:16.793185Z"}}